Regional Weather Roundup
Issued by NWS

Home | Current Version | Previous Version | Graphics & Text | Print | Product List | Glossary Off
Versions: 1 2 3 4 5 6 7 8 9 10 11 12 13 14 15 16 17 18 19 20 21 22 23 24 25 26 27 28 29 30 31 32 33 34 35 36 37 38 39 40 41 42 43 44 45 46 47 48 49 50

000
ASUS43 KTOP 240059
RWRKS

WEATHER ROUNDUP FOR KANSAS
NATIONAL WEATHER SERVICE GOODLAND KS
700 PM CST THU NOV 23 2017

NOTE:  "FAIR" INDICATES FEW OR NO CLOUDS BELOW 12,000 FEET WITH NO
SIGNIFICANT WEATHER AND/OR OBSTRUCTIONS TO VISIBILITY.

KSZ001>006-013>018-027>032-041>047-240200-
NORTHWEST KANSAS

CITY           SKY/WX    TMP DP  RH WIND       PRES   REMARKS
GOODLAND       CLOUDY    60  37  42 SW12      29.93F
HAYS           CLOUDY    57  40  52 S8        29.90F
HILL CITY      CLOUDY    57  40  52 SW7       29.89F
RUSSELL        CLEAR     54  41  61 S10       29.89F
$$

KSZ061>065-074>080-084>089-240200-
SOUTHWEST KANSAS

CITY           SKY/WX    TMP DP  RH WIND       PRES   REMARKS
DODGE CITY     CLOUDY    56  38  50 SW8       29.96S
GARDEN CITY    CLOUDY    58  38  47 S5        29.95F
GREAT BEND     CLOUDY    51  38  60 SW5       29.93S
LIBERAL        CLOUDY    52  38  58 SW8       29.99S
$$

KSZ066>073-081>083-090>101-240200-
SOUTHEAST KANSAS

CITY           SKY/WX    TMP DP  RH WIND       PRES   REMARKS
CHANUTE        CLEAR     49  33  54 S8        29.97S
COFFEYVILLE    CLEAR     52  31  44 S5        29.98S
HUTCHINSON     CLEAR     56  39  53 S3        29.93S
MEDICINE LODGE   N/A     57  38  48 S3        29.96R
NEWTON         CLOUDY    52  36  54 S10       29.95
PARSONS        CLEAR     53  32  44 S3        29.99S
WICHITA INTL   CLOUDY    52  36  54 S9        29.95R
WICHITA JABRA  CLOUDY    54  37  52 S9        29.95S
WICHITA MCCONL CLOUDY    53  34  48 SW6       29.95S
WINFIELD       CLEAR     54  34  46 CALM      29.97S
$$

KSZ007>012-019>026-033>040-048>060-102>105-240200-
NORTHEAST KANSAS

CITY           SKY/WX    TMP DP  RH WIND       PRES   REMARKS
CONCORDIA      CLOUDY    60  40  47 S14       29.87F
EMPORIA        CLEAR     52  36  54 S9        29.93S
LAWRENCE       CLEAR     49  37  63 E6        29.93S
MANHATTAN      CLOUDY    50  38  63 CALM      29.90S
OLATHE IND     CLEAR     50  36  58 S6        29.95S
OLATHE EXE     CLEAR     51  36  56 S5        29.95R
SALINA         CLEAR     54  40  59 S8        29.91F
TOPEKA BILLARD CLEAR     52  37  56 SE3       29.91F
TOPEKA FORBES  CLEAR     53  37  54 SE7       29.92F
$$




USA.gov is the U.S. government's official web portal to all federal, state and local government web resources and services.